Toledo, OH

7:09 PM EDT on April 25, 2018 (GMT -0400)
Toledo Express

Weather History for KTOL - December, 2013

Change the Weather History Date:

Monday, December 30, 2013

  Actual Average Record
Temperature  
Mean Temperature 21 °F 26 °F  
Max Temperature 25 °F 33 °F 60 °F (1936)
Min Temperature 16 °F 20 °F -12 °F (1983)
Degree Days  
Heating Degree Days 44 39  
Month to date heating degree days 1103 1053  
Since 1 July heating degree days 2451 2286  
Cooling Degree Days 0 0  
Month to date cooling degree days 0 0  
Year to date cooling degree days 793 793  
Moisture  
Dew Point 11 °F    
Average Humidity 64    
Maximum Humidity 75    
Minimum Humidity 52    
Precipitation  
Precipitation T in 0.08 in 2.51 in (1992)
Month to date precipitation 3.02 2.60  
Year to date precipitation 36.78 34.16  
Snow  
Snow T in 0.30 in - ()
Month to date snowfall 10.4 7.1  
Since 1 July snowfall 10.9 9.2  
Snow Depth 0.00 in    
Sea Level Pressure  
Sea Level Pressure 30.19 in    
Wind  
Wind Speed 7 mph (WNW)    
Max Wind Speed 20 mph    
Max Gust Speed 26 mph    
Visibility 10 miles    
Events Snow    
T = Trace of Precipitation, MM = Missing Value Source: NWS Daily Summary

Daily Weather History Graph

Daily Weather History Graph

Search for Another Location

Airport or City:

Astronomy

Dec. 30, 2013 Rise Set
Actual Time 8:01 AM EST 5:14 PM EST
Civil Twilight 7:30 AM EST 5:45 PM EST
Nautical Twilight 6:55 AM EST 6:20 PM EST
Astronomical Twilight 6:21 AM EST 6:54 PM EST
Moon 5:49 AM EST (12/30) 3:47 PM EST (12/30)
Length of Visible Light 10h 15m
Length of Day
9h 12m
Waning Crescent, 5% of the Moon is Illuminated
Dec 30
Waning Crescent
Jan 1
New
Jan 7
First Quarter
Jan 15
Full
Jan 24
Last Quarter

Hourly Weather History & Observations

Time (EST) Temp. Windchill Dew Point Humidity Pressure Visibility Wind Dir Wind Speed Gust Speed Precip Events Conditions
12:52 AM 24.1 °F 12.0 °F 16.0 °F 71% 30.05 in 10.0 mi NW 13.8 mph 21.9 mph N/A   Overcast
1:52 AM 23.0 °F 8.7 °F 12.9 °F 65% 30.07 in 10.0 mi NW 18.4 mph 25.3 mph N/A   Overcast
2:20 AM 21.2 °F 9.5 °F 12.2 °F 68% 30.06 in 10.0 mi NW 11.5 mph 20.7 mph N/A   Overcast
2:52 AM 21.9 °F 12.5 °F 12.0 °F 66% 30.11 in 10.0 mi NNW 8.1 mph - N/A   Overcast
3:52 AM 21.9 °F 11.7 °F 10.9 °F 63% 30.13 in 10.0 mi NW 9.2 mph - N/A   Overcast
4:52 AM 21.0 °F 9.3 °F 10.0 °F 63% 30.15 in 10.0 mi NNW 11.5 mph - N/A   Overcast
5:52 AM 19.9 °F 7.9 °F 8.1 °F 60% 30.17 in 10.0 mi NW 11.5 mph - N/A   Overcast
6:52 AM 18.0 °F 8.7 °F 9.0 °F 68% 30.20 in 10.0 mi North 6.9 mph - N/A   Mostly Cloudy
7:52 AM 16.0 °F - 8.1 °F 71% 30.23 in 10.0 mi Calm Calm - N/A   Scattered Clouds
8:52 AM 18.0 °F - 10.0 °F 71% 30.26 in 10.0 mi Calm Calm - N/A   Overcast
9:52 AM 21.0 °F 14.6 °F 9.0 °F 60% 30.27 in 10.0 mi North 4.6 mph - N/A   Overcast
10:52 AM 21.9 °F 14.5 °F 7.0 °F 53% 30.27 in 10.0 mi NW 5.8 mph - N/A   Scattered Clouds
11:52 AM 21.9 °F 17.2 °F 7.0 °F 53% 30.26 in 10.0 mi WNW 3.5 mph - N/A   Mostly Cloudy
12:52 PM 21.9 °F 11.0 °F 9.0 °F 58% 30.25 in 10.0 mi West 10.4 mph - 0.00 in Snow Light Snow
1:30 PM 21.2 °F 12.6 °F 10.4 °F 63% 30.21 in 5.0 mi West 6.9 mph - 0.00 in Snow Light Snow
1:44 PM 21.2 °F 16.4 °F 10.4 °F 63% 30.20 in 9.0 mi SW 3.5 mph - 0.00 in Snow Light Snow
1:52 PM 23.0 °F 13.1 °F 10.9 °F 60% 30.22 in 9.0 mi West 9.2 mph - 0.00 in Snow Light Snow
2:52 PM 21.9 °F 15.7 °F 9.0 °F 58% 30.21 in 10.0 mi West 4.6 mph - 0.00 in   Overcast
3:52 PM 21.9 °F 17.2 °F 12.0 °F 66% 30.21 in 10.0 mi NW 3.5 mph - N/A   Overcast
4:52 PM 21.9 °F 15.7 °F 12.0 °F 66% 30.21 in 10.0 mi SW 4.6 mph - N/A   Overcast
5:52 PM 21.9 °F - 12.0 °F 66% 30.20 in 10.0 mi Calm Calm - N/A   Overcast
6:52 PM 21.9 °F 15.7 °F 12.9 °F 68% 30.21 in 10.0 mi SW 4.6 mph - N/A   Overcast
7:04 PM 21.2 °F 14.9 °F 12.2 °F 68% 30.18 in 10.0 mi SW 4.6 mph - N/A   Overcast
7:52 PM 21.0 °F - 12.9 °F 71% 30.20 in 10.0 mi Calm Calm - N/A   Overcast
8:52 PM 21.0 °F 16.2 °F 12.9 °F 71% 30.19 in 10.0 mi SW 3.5 mph - N/A   Overcast
9:52 PM 21.0 °F 13.4 °F 12.9 °F 71% 30.18 in 10.0 mi SW 5.8 mph - N/A   Overcast
10:52 PM 21.0 °F 9.9 °F 10.9 °F 65% 30.16 in 10.0 mi WSW 10.4 mph - N/A   Mostly Cloudy
11:52 PM 19.9 °F 7.3 °F 10.9 °F 68% 30.15 in 10.0 mi WSW 12.7 mph - N/A   Overcast